DAL1556 KDTW-KBOS

Flight info

Callsign DAL1556
Flight time N/A
Altitude 41000
Route HHOWE4 LNCON JHW Q82 PONCT JFUND2
Aircraft A359/H-SDE2E3GHIJ3J4J5LM1ORWXY/LB1D1

Departure

Time 2026-05-07 00:48
Airport Detroit Metropolitan Wayne County Airport (KDTW)

Arrival

Time N/A
Airport Boston Logan International Airport (KBOS)
Time Latitude Longitude Altitude Speed Heading
2026-05-07 00:23 42.20817 -83.35899 653 ft 0 kts 118°
2026-05-07 00:38 42.20820 -83.35906 652 ft 3 kts 118°
2026-05-07 00:38 42.20830 -83.35928 655 ft 3 kts 116°
2026-05-07 00:38 42.20841 -83.35951 655 ft 3 kts 151°
2026-05-07 00:39 42.20859 -83.35959 658 ft 3 kts 192°
2026-05-07 00:39 42.20869 -83.35955 656 ft 0 kts 209°
2026-05-07 00:42 42.20860 -83.35964 658 ft 5 kts 217°
2026-05-07 00:42 42.20815 -83.36007 656 ft 11 kts 211°
2026-05-07 00:43 42.20739 -83.36065 655 ft 14 kts 209°
2026-05-07 00:43 42.20645 -83.36136 655 ft 17 kts 209°
2026-05-07 00:43 42.20534 -83.36216 655 ft 19 kts 208°
2026-05-07 00:43 42.20408 -83.36307 656 ft 22 kts 208°
2026-05-07 00:44 42.20276 -83.36393 654 ft 19 kts 197°
2026-05-07 00:44 42.20208 -83.36389 654 ft 8 kts 143°
2026-05-07 00:44 42.20185 -83.36310 655 ft 11 kts 104°
2026-05-07 00:44 42.20168 -83.36196 657 ft 14 kts 99°
2026-05-07 00:45 42.20162 -83.36051 652 ft 17 kts 87°
2026-05-07 00:45 42.20166 -83.35885 656 ft 19 kts 90°
2026-05-07 00:45 42.20168 -83.35691 656 ft 22 kts 89°
2026-05-07 00:45 42.20172 -83.35479 657 ft 24 kts 89°
2026-05-07 00:46 42.20177 -83.35248 656 ft 25 kts 84°
2026-05-07 00:46 42.20258 -83.35144 656 ft 16 kts 28°
2026-05-07 00:46 42.20343 -83.35080 656 ft 18 kts 29°
2026-05-07 00:46 42.20444 -83.35010 656 ft 11 kts 20°
2026-05-07 00:47 42.20527 -83.35013 656 ft 13 kts
2026-05-07 00:47 42.20614 -83.34965 655 ft 14 kts 28°
2026-05-07 00:47 42.20710 -83.34928 658 ft 14 kts 336°
2026-05-07 00:47 42.20767 -83.35041 655 ft 16 kts 299°
2026-05-07 00:48 42.20874 -83.35056 651 ft 27 kts 22°
2026-05-07 00:48 42.21268 -83.34789 653 ft 107 kts 32°
2026-05-07 00:48 42.22165 -83.34114 833 ft 172 kts 26°
2026-05-07 00:48 42.23257 -83.33301 1869 ft 188 kts 27°
2026-05-07 00:49 42.24367 -83.32087 2475 ft 223 kts 43°
2026-05-07 00:49 42.25471 -83.30403 2851 ft 253 kts 48°
2026-05-07 00:49 42.26623 -83.28533 3651 ft 263 kts 48°
2026-05-07 00:49 42.27810 -83.26622 4553 ft 268 kts 47°
2026-05-07 00:50 42.29030 -83.24680 5453 ft 274 kts 47°
2026-05-07 00:50 42.30274 -83.22712 6314 ft 277 kts 47°
2026-05-07 00:50 42.31542 -83.20712 7083 ft 283 kts 47°
2026-05-07 00:50 42.32709 -83.18529 7983 ft 292 kts 61°
2026-05-07 00:51 42.33153 -83.15835 8929 ft 300 kts 93°
2026-05-07 00:51 42.32856 -83.13038 9940 ft 303 kts 103°
2026-05-07 00:51 42.32414 -83.10191 10558 ft 321 kts 104°
2026-05-07 00:51 42.31937 -83.07119 10913 ft 347 kts 103°
2026-05-07 00:52 42.31439 -83.03821 11325 ft 369 kts 103°
2026-05-07 00:52 42.30927 -83.00364 11991 ft 381 kts 103°
2026-05-07 00:52 42.30393 -82.96804 12749 ft 391 kts 105°
2026-05-07 00:52 42.29781 -82.93185 13483 ft 400 kts 106°
2026-05-07 00:53 42.29142 -82.89489 14218 ft 408 kts 107°
2026-05-07 00:53 42.28500 -82.85732 14953 ft 413 kts 107°
2026-05-07 00:53 42.27866 -82.81931 15718 ft 419 kts 105°
2026-05-07 00:53 42.27608 -82.77972 16467 ft 428 kts 91°
2026-05-07 00:54 42.27818 -82.73928 17221 ft 435 kts 86°
2026-05-07 00:54 42.28150 -82.69834 17963 ft 442 kts 85°
2026-05-07 00:54 42.28513 -82.65679 18652 ft 448 kts 85°
2026-05-07 00:54 42.28888 -82.61475 19347 ft 454 kts 85°
2026-05-07 00:55 42.29269 -82.57224 20043 ft 459 kts 85°
2026-05-07 00:55 42.29656 -82.52924 20754 ft 464 kts 85°
2026-05-07 00:55 42.30047 -82.48567 21454 ft 469 kts 84°
2026-05-07 00:55 42.30440 -82.44171 22133 ft 475 kts 84°
2026-05-07 00:56 42.30837 -82.39720 22801 ft 480 kts 84°
2026-05-07 00:56 42.31236 -82.35228 23502 ft 484 kts 84°
2026-05-07 00:56 42.31639 -82.30673 24018 ft 492 kts 85°
2026-05-07 00:56 42.32046 -82.26044 24435 ft 501 kts 85°
2026-05-07 00:57 42.32458 -82.21334 24875 ft 509 kts 85°
2026-05-07 00:57 42.32874 -82.16558 25335 ft 517 kts 85°
2026-05-07 00:57 42.33296 -82.11702 25771 ft 524 kts 85°
2026-05-07 00:57 42.33721 -82.06766 26214 ft 532 kts 85°
2026-05-07 00:58 42.34149 -82.01783 26828 ft 535 kts 85°
2026-05-07 00:58 42.34578 -81.96773 27473 ft 538 kts 85°
2026-05-07 00:58 42.35007 -81.91718 27875 ft 546 kts 85°
2026-05-07 00:58 42.35441 -81.86588 28312 ft 553 kts 85°
2026-05-07 00:59 42.36317 -81.76135 29199 ft 565 kts 85°
2026-05-07 00:59 42.36757 -81.70839 29614 ft 571 kts 85°
2026-05-07 00:59 42.37202 -81.65457 30004 ft 577 kts 85°
2026-05-07 01:00 42.37648 -81.60027 30211 ft 587 kts 85°
2026-05-07 01:00 42.38098 -81.54513 30558 ft 592 kts 85°
2026-05-07 01:00 42.38548 -81.48965 30974 ft 595 kts 85°
2026-05-07 01:00 42.39001 -81.43359 31353 ft 599 kts 85°
2026-05-07 01:01 42.39445 -81.37819 31714 ft 603 kts 85°
2026-05-07 01:01 42.39897 -81.32155 32060 ft 606 kts 85°
2026-05-07 01:01 42.40347 -81.26471 32368 ft 611 kts 86°
2026-05-07 01:01 42.40798 -81.20724 32539 ft 618 kts 86°
2026-05-07 01:02 42.41252 -81.14916 32865 ft 621 kts 86°
2026-05-07 01:02 42.41704 -81.09096 33210 ft 624 kts 86°
2026-05-07 01:02 42.42157 -81.03232 33518 ft 627 kts 86°
2026-05-07 01:02 42.42608 -80.97342 33833 ft 630 kts 86°
2026-05-07 01:03 42.43057 -80.91442 34222 ft 629 kts 86°
2026-05-07 01:03 42.43502 -80.85561 34563 ft 630 kts 86°
2026-05-07 01:03 42.43945 -80.79658 34943 ft 629 kts 86°
2026-05-07 01:03 42.44383 -80.73773 35470 ft 624 kts 86°
2026-05-07 01:04 42.44814 -80.67958 36018 ft 619 kts 86°
2026-05-07 01:04 42.45240 -80.62170 36509 ft 616 kts 86°
2026-05-07 01:04 42.45660 -80.56403 36941 ft 613 kts 86°
2026-05-07 01:04 42.46076 -80.50661 37286 ft 612 kts 86°
2026-05-07 01:05 42.46488 -80.44930 37597 ft 612 kts 86°
2026-05-07 01:05 42.46897 -80.39196 37977 ft 610 kts 86°
2026-05-07 01:05 42.47302 -80.33490 38417 ft 607 kts 86°
2026-05-07 01:05 42.47702 -80.27811 38815 ft 604 kts 86°
2026-05-07 01:06 42.48096 -80.22165 39130 ft 602 kts 86°
2026-05-07 01:06 42.48487 -80.16529 39402 ft 600 kts 86°
2026-05-07 01:06 42.48870 -80.10977 39602 ft 600 kts 86°
2026-05-07 01:06 42.49259 -80.05287 39832 ft 599 kts 86°
2026-05-07 01:07 42.49635 -79.99744 40105 ft 597 kts 86°
2026-05-07 01:07 42.50013 -79.94148 40394 ft 595 kts 86°
2026-05-07 01:07 42.50386 -79.88576 40663 ft 593 kts 86°
2026-05-07 01:07 42.50755 -79.83020 40914 ft 592 kts 86°
2026-05-07 01:08 42.51122 -79.77455 40981 ft 593 kts 86°
2026-05-07 01:08 42.51848 -79.66320 41000 ft 593 kts 86°
2026-05-07 01:09 42.52563 -79.55189 41000 ft 593 kts 86°
2026-05-07 01:09 42.53267 -79.44054 41015 ft 593 kts 86°
2026-05-07 01:10 42.53959 -79.32934 40989 ft 591 kts 86°
2026-05-07 01:10 42.54639 -79.21832 40990 ft 590 kts 86°
2026-05-07 01:11 42.55307 -79.10760 40990 ft 590 kts 86°
2026-05-07 01:11 42.55965 -78.99667 40986 ft 590 kts 86°
2026-05-07 01:12 42.56613 -78.88560 40972 ft 590 kts 86°
2026-05-07 01:12 42.57250 -78.77461 40962 ft 590 kts 86°
2026-05-07 01:13 42.57876 -78.66360 40962 ft 590 kts 86°
2026-05-07 01:13 42.58492 -78.55248 40971 ft 590 kts 87°
2026-05-07 01:14 42.59097 -78.44136 40968 ft 591 kts 87°
2026-05-07 01:14 42.59688 -78.33086 40976 ft 591 kts 87°
2026-05-07 01:15 42.60271 -78.21976 40965 ft 591 kts 87°
2026-05-07 01:15 42.60844 -78.10849 40968 ft 591 kts 87°
2026-05-07 01:16 42.61406 -77.99744 40960 ft 589 kts 87°
2026-05-07 01:16 42.61956 -77.88654 40960 ft 588 kts 87°
2026-05-07 01:17 42.62494 -77.77585 40974 ft 588 kts 87°
2026-05-07 01:17 42.63021 -77.66506 40967 ft 588 kts 87°
2026-05-07 01:18 42.63538 -77.55428 40961 ft 588 kts 88°
2026-05-07 01:18 42.64044 -77.44347 40965 ft 588 kts 88°
2026-05-07 01:19 42.64457 -77.35141 40951 ft 587 kts 88°
2026-05-07 01:19 42.64943 -77.24059 40958 ft 587 kts 88°
2026-05-07 01:20 42.65418 -77.12994 40952 ft 587 kts 88°
2026-05-07 01:20 42.65884 -77.01904 40951 ft 587 kts 88°
2026-05-07 01:21 42.66337 -76.90840 40952 ft 587 kts 88°
2026-05-07 01:21 42.66781 -76.79766 40970 ft 587 kts 88°
2026-05-07 01:22 42.67213 -76.68707 40943 ft 584 kts 88°
2026-05-07 01:22 42.67632 -76.57688 40940 ft 584 kts 88°
2026-05-07 01:23 42.68041 -76.46671 40932 ft 584 kts 88°
2026-05-07 01:23 42.68441 -76.35631 40942 ft 585 kts 89°
2026-05-07 01:24 42.68830 -76.24572 40939 ft 585 kts 89°
2026-05-07 01:24 42.69209 -76.13516 40933 ft 586 kts 89°
2026-05-07 01:25 42.69577 -76.02448 40944 ft 586 kts 89°
2026-05-07 01:25 42.69934 -75.91368 40941 ft 586 kts 89°
2026-05-07 01:26 42.70280 -75.80357 40942 ft 586 kts 89°
2026-05-07 01:26 42.70616 -75.69282 40941 ft 586 kts 89°
2026-05-07 01:27 42.70941 -75.58226 40942 ft 586 kts 89°
2026-05-07 01:27 42.71256 -75.47160 40938 ft 584 kts 89°
2026-05-07 01:28 42.71559 -75.36139 40934 ft 583 kts 89°
2026-05-07 01:28 42.71851 -75.25134 40931 ft 582 kts 89°
2026-05-07 01:29 42.72132 -75.14135 40928 ft 582 kts 89°
2026-05-07 01:29 42.72403 -75.03136 40904 ft 582 kts 89°
2026-05-07 01:30 42.72663 -74.92143 40916 ft 582 kts 89°
2026-05-07 01:30 42.72913 -74.81131 40920 ft 582 kts 89°
2026-05-07 01:31 42.73151 -74.70135 40911 ft 582 kts 89°
2026-05-07 01:31 42.73380 -74.59131 40904 ft 582 kts 90°
2026-05-07 01:32 42.73598 -74.48130 40899 ft 582 kts 90°
2026-05-07 01:32 42.73805 -74.37131 40897 ft 582 kts 90°
2026-05-07 01:33 42.74002 -74.26116 40914 ft 582 kts 90°
2026-05-07 01:33 42.74188 -74.15131 40885 ft 580 kts 90°
2026-05-07 01:34 42.74363 -74.04231 40881 ft 580 kts 90°
2026-05-07 01:34 42.74528 -73.93195 40904 ft 581 kts 90°
2026-05-07 01:34 42.74606 -73.87774 40781 ft 578 kts 90°
2026-05-07 01:35 42.74682 -73.82316 40037 ft 580 kts 90°
2026-05-07 01:35 42.74725 -73.76736 39320 ft 583 kts 92°
2026-05-07 01:35 42.74681 -73.71295 38766 ft 582 kts 92°
2026-05-07 01:35 42.74623 -73.65795 38023 ft 584 kts 92°
2026-05-07 01:36 42.74569 -73.60262 37296 ft 583 kts 92°
2026-05-07 01:36 42.74518 -73.54750 36613 ft 584 kts 92°
2026-05-07 01:36 42.74468 -73.49219 35898 ft 585 kts 92°
2026-05-07 01:36 42.74418 -73.43679 35148 ft 588 kts 92°
2026-05-07 01:37 42.74365 -73.38102 34357 ft 591 kts 92°
2026-05-07 01:37 42.74310 -73.32491 33443 ft 597 kts 92°
2026-05-07 01:37 42.74253 -73.26828 32483 ft 600 kts 92°
2026-05-07 01:37 42.74192 -73.21145 31583 ft 601 kts 92°
2026-05-07 01:38 42.74129 -73.15447 30649 ft 604 kts 92°
2026-05-07 01:38 42.73863 -73.09757 29612 ft 604 kts 100°
2026-05-07 01:38 42.73275 -73.04137 28913 ft 596 kts 102°
2026-05-07 01:38 42.72630 -72.98592 28239 ft 589 kts 103°
2026-05-07 01:39 42.71986 -72.93122 27527 ft 583 kts 103°
2026-05-07 01:39 42.71349 -72.87705 26874 ft 577 kts 103°
2026-05-07 01:39 42.70723 -72.82375 26527 ft 564 kts 103°
2026-05-07 01:39 42.70110 -72.77163 26281 ft 556 kts 103°
2026-05-07 01:40 42.69434 -72.72000 26031 ft 551 kts 108°
2026-05-07 01:40 42.68520 -72.66978 25788 ft 547 kts 103°
2026-05-07 01:40 42.68109 -72.61830 24983 ft 549 kts 97°
2026-05-07 01:40 42.67649 -72.56694 24207 ft 545 kts 102°
2026-05-07 01:41 42.67054 -72.51634 23552 ft 539 kts 103°
2026-05-07 01:41 42.66458 -72.46718 23132 ft 528 kts 103°
2026-05-07 01:41 42.65870 -72.41885 22803 ft 506 kts 103°
2026-05-07 01:41 42.65310 -72.37295 22303 ft 480 kts 104°
2026-05-07 01:42 42.64771 -72.32915 21664 ft 461 kts 104°
2026-05-07 01:42 42.64258 -72.28692 20878 ft 447 kts 104°
2026-05-07 01:42 42.63778 -72.24559 19961 ft 438 kts 104°
2026-05-07 01:42 42.63309 -72.20508 19528 ft 431 kts 104°
2026-05-07 01:43 42.62843 -72.16510 19023 ft 428 kts 104°
2026-05-07 01:43 42.62378 -72.12532 18554 ft 424 kts 104°
2026-05-07 01:43 42.61916 -72.08600 18099 ft 420 kts 104°
2026-05-07 01:43 42.61458 -72.04711 17581 ft 415 kts 104°
2026-05-07 01:44 42.61001 -72.00860 17110 ft 410 kts 105°
2026-05-07 01:44 42.60531 -71.97074 16653 ft 406 kts 105°
2026-05-07 01:44 42.60058 -71.93309 16181 ft 403 kts 105°
2026-05-07 01:44 42.59589 -71.89571 15723 ft 400 kts 105°
2026-05-07 01:45 42.59124 -71.85861 15285 ft 398 kts 105°
2026-05-07 01:45 42.58664 -71.82178 14817 ft 395 kts 104°
2026-05-07 01:45 42.58159 -71.78529 14376 ft 391 kts 107°
2026-05-07 01:45 42.57576 -71.74941 13935 ft 389 kts 108°
2026-05-07 01:46 42.56990 -71.71368 13467 ft 386 kts 107°
2026-05-07 01:46 42.56414 -71.67817 13006 ft 384 kts 107°
2026-05-07 01:46 42.55896 -71.64270 12666 ft 386 kts 103°
2026-05-07 01:46 42.55149 -71.60672 12532 ft 407 kts 120°
2026-05-07 01:47 42.53892 -71.57192 12419 ft 416 kts 119°
2026-05-07 01:47 42.52911 -71.53480 12328 ft 421 kts 109°
2026-05-07 01:47 42.52222 -71.49630 12249 ft 421 kts 104°
2026-05-07 01:47 42.51982 -71.45775 12112 ft 410 kts 90°
2026-05-07 01:48 42.52263 -71.41943 11879 ft 396 kts 83°
2026-05-07 01:48 42.52660 -71.38370 11647 ft 382 kts 82°